Home > Weather > Iquique > Past weeks

Flag for Chile Past Weather in Iquique, Chile — Yesterday and Last 2 Weeks

Now
61 °F

Overcast.


Feels Like: 61 °F
Forecast: 62 / 71 °F
Wind: 7 mph from North

Location: Iquique / Diego Arac

Current Time: Jun 29, 2016 at 7:02:11 AM

Latest Report: Jun 29, 2016 at 6:00 AM


Visibility: 4 mi

Pressure: 29.95 "Hg

Humidity: 88%

Dew Point: 57 °F

Location of IquiqueLocation

Past Weather in Iquique — Graph

°F

Iquique Temperature Yesterday

Maximum temperature yesterday: 64 °F (at 12:00 PM)
Minimum temperature yesterday: 59 °F (at 6:00 AM)
Average temperature yesterday: 61 °F

High & Low Weather Summary for the Past Weeks

 TemperatureHumidityPressure
High70 °F (Jun 14, 1:00 PM)88% (Jun 15, 1:00 AM)30.12 "Hg (Jun 15, 1:00 AM)
Low54 °F (Jun 27, 5:00 AM)52% (Jun 24, 12:00 PM)29.89 "Hg (Jun 28, 8:00 PM)
Average62 °F69%30.03 "Hg
* Reported Jun 14 5:00 AM — Jun 29 5:00 AM, Iquique, Weather by CustomWeather, © 2016

Note: Actual official high and low records may vary slightly from our data, if they occured in-between our weather recording intervals... More about our weather records

Advertising

Iquique Weather History for the Previous 24 Hours

Scroll right to see more
 ConditionsComfort  
Time TempWeatherWind HumidityBarometerVisibility
5:00 AM
Wed, Jun 29
61 °FOvercast.7 mph88%29.95 "Hg4 mi
4:00 AM61 °FOvercast.14 mph88%29.95 "Hg5 mi
3:00 AM61 °FOvercast.9 mph83%29.95 "HgN/A
2:00 AM61 °FPassing clouds.10 mph88%29.95 "HgN/A
1:00 AM61 °FPassing clouds.15 mph88%29.92 "HgN/A
12:00 AM63 °FPassing clouds.14 mph83%29.92 "HgN/A
11:00 PM
Tue, Jun 28
61 °FPassing clouds.9 mph88%29.92 "HgN/A
10:00 PM61 °FPassing clouds.13 mph83%29.89 "HgN/A
9:00 PM63 °FPassing clouds.20 mph77%29.89 "HgN/A
8:00 PM61 °FPassing clouds.22 mph83%29.89 "HgN/A
7:00 PM61 °FPassing clouds.10 mph83%29.95 "HgN/A
6:00 PM63 °FPassing clouds.13 mph77%29.95 "HgN/A
5:00 PM63 °FPartly sunny.17 mph77%29.92 "HgN/A
4:00 PM63 °FPartly sunny.8 mph77%29.95 "HgN/A
3:00 PM64 °FScattered clouds.6 mph68%29.95 "HgN/A
2:00 PM63 °FBroken clouds.8 mph73%29.95 "HgN/A
1:00 PM63 °FPartly sunny.18 mph73%29.92 "HgN/A
12:00 PM64 °FBroken clouds.10 mph68%29.98 "HgN/A
11:00 AM63 °FScattered clouds.12 mph68%30.01 "HgN/A
10:00 AM63 °FBroken clouds.8 mph68%30.01 "HgN/A
9:00 AM61 °FBroken clouds.15 mph72%29.92 "HgN/A
8:00 AM59 °FSunny.7 mph77%29.98 "Hg10 mi
7:00 AM59 °FSunny.5 mph72%29.98 "Hg10 mi
Weather by CustomWeather, © 2016

See weather overviewHow to use our weather pages